International Skating Union - Official Site

ESSENT ISU WORLD DISTANCES CHAMPIONSHIPS 2011
March 10-13, 2011

Draw | Lap Times | Index | World Cup

Referee: Hannu  KOIVU  (FIN)
Starter: Yoshihiro  KITAZAWA  (JPN)
StartTime: EndTime: Air Temp: Ice Temp: Humidity:
Result Team Pursuit Men
Rankings as of Mar 13 2011 4:20PM
Rank: No.: Team: Nation: Time: Behind: Points:
Total 8
1 3 USA (151) Shani DAVIS (152) Trevor MARSICANO (153) Jonathan KUCK USA USA 3:41.720.5 - 17.58 - (17.5)
1.0 - 30.57 - (12.9)
1.5 - 43.32 - (12.7)
2.0 - 56.59 - (13.2)
2.5 - 1:09.79 - (13.2)
3.0 - 1:23.15 - (13.3)
3.5 - 1:36.52 - (13.3)
4.0 - 1:49.85 - (13.3)
4.5 - 2:03.15 - (13.3)
5.0 - 2:17.03 - (13.8)
5.5 - 2:30.91 - (13.8)
6.0 - 2:45.12 - (14.2)
6.5 - 2:59.21 - (14.0)
7.0 - 3:13.51 - (14.3)
7.5 - 3:27.46 - (13.9)
8.0 - 3:41.72 - (14.2)
2 4 Canada (71) Denny MORRISON (72) Lucas MAKOWSKY (77) Mathieu GIROUX CAN CAN 3:41.850.5 - 17.07 - (17.0)
1.0 - 29.88 - (12.8)
1.5 - 42.69 - (12.8)
2.0 - 55.83 - (13.1)
2.5 - 1:09.06 - (13.2)
3.0 - 1:22.42 - (13.3)
3.5 - 1:35.78 - (13.3)
4.0 - 1:49.40 - (13.6)
4.5 - 2:03.22 - (13.8)
5.0 - 2:17.00 - (13.7)
5.5 - 2:30.73 - (13.7)
6.0 - 2:44.53 - (13.8)
6.5 - 2:58.47 - (13.9)
7.0 - 3:12.83 - (14.3)
7.5 - 3:27.22 - (14.3)
8.0 - 3:41.85 - (14.6)
0.13
3 8 Netherlands (127) Bob de VRIES (121) Jan BLOKHUIJSEN (161) Koen VERWEIJ NED NED 3:43.440.5 - 18.27 - (18.2)
1.0 - 31.43 - (13.1)
1.5 - 44.66 - (13.2)
2.0 - 57.92 - (13.2)
2.5 - 1:11.35 - (13.4)
3.0 - 1:24.73 - (13.3)
3.5 - 1:38.28 - (13.5)
4.0 - 1:52.00 - (13.7)
4.5 - 2:05.83 - (13.8)
5.0 - 2:19.62 - (13.7)
5.5 - 2:33.52 - (13.9)
6.0 - 2:47.28 - (13.7)
6.5 - 3:01.19 - (13.9)
7.0 - 3:15.23 - (14.0)
7.5 - 3:29.48 - (14.2)
8.0 - 3:43.44 - (13.9)
1.72
4 5 Germany (90) Marco WEBER (92) Tobias SCHNEIDER (93) Robert LEHMANN GER GER 3:45.540.5 - 18.03 - (18.0)
1.0 - 31.46 - (13.4)
1.5 - 44.84 - (13.3)
2.0 - 58.34 - (13.5)
2.5 - 1:11.93 - (13.5)
3.0 - 1:25.69 - (13.7)
3.5 - 1:39.31 - (13.6)
4.0 - 1:52.91 - (13.6)
4.5 - 2:06.87 - (13.9)
5.0 - 2:20.72 - (13.8)
5.5 - 2:35.02 - (14.3)
6.0 - 2:49.23 - (14.2)
6.5 - 3:03.59 - (14.3)
7.0 - 3:17.46 - (13.8)
7.5 - 3:31.42 - (13.9)
8.0 - 3:45.54 - (14.1)
3.82
5 1 Norway (130) Mikael FLYGIND-LARSEN (131) Håvard BØKKO (134) Sverre LUNDE PEDERSEN NOR NOR 3:45.730.5 - 17.66 - (17.6)
1.0 - 30.97 - (13.3)
1.5 - 44.31 - (13.3)
2.0 - 57.74 - (13.4)
2.5 - 1:11.37 - (13.6)
3.0 - 1:24.93 - (13.5)
3.5 - 1:38.65 - (13.7)
4.0 - 1:52.39 - (13.7)
4.5 - 2:06.42 - (14.0)
5.0 - 2:20.86 - (14.4)
5.5 - 2:35.55 - (14.6)
6.0 - 2:49.68 - (14.1)
6.5 - 3:03.74 - (14.0)
7.0 - 3:17.83 - (14.0)
7.5 - 3:31.78 - (13.9)
8.0 - 3:45.73 - (13.9)
4.01
6 2 Russia (142) Ivan SKOBREV (144) Aleksandr RUMYANTSEV (145) Pavel BAYNOV RUS RUS 3:46.020.5 - 17.81 - (17.8)
1.0 - 31.44 - (13.6)
1.5 - 45.01 - (13.5)
2.0 - 58.38 - (13.3)
2.5 - 1:12.09 - (13.7)
3.0 - 1:25.81 - (13.7)
3.5 - 1:39.80 - (13.9)
4.0 - 1:53.73 - (13.9)
4.5 - 2:07.86 - (14.1)
5.0 - 2:21.77 - (13.9)
5.5 - 2:35.73 - (13.9)
6.0 - 2:49.51 - (13.7)
6.5 - 3:03.28 - (13.7)
7.0 - 3:17.18 - (13.9)
7.5 - 3:31.46 - (14.2)
8.0 - 3:46.02 - (14.5)
4.30
7 7 Italy (97) Matteo ANESI (98) Marco CIGNINI (100) Luca STEFANI ITA ITA 3:49.680.5 - 17.52 - (17.5)
1.0 - 31.03 - (13.5)
1.5 - 44.84 - (13.8)
2.0 - 58.80 - (13.9)
2.5 - 1:12.90 - (14.1)
3.0 - 1:26.93 - (14.0)
3.5 - 1:41.06 - (14.1)
4.0 - 1:55.09 - (14.0)
4.5 - 2:09.35 - (14.2)
5.0 - 2:23.57 - (14.2)
5.5 - 2:37.81 - (14.2)
6.0 - 2:51.96 - (14.1)
6.5 - 3:06.22 - (14.2)
7.0 - 3:20.74 - (14.5)
7.5 - 3:35.36 - (14.6)
8.0 - 3:49.68 - (14.3)
7.96
8 6 Poland (137) Konrad NIEDZWIEDZKI (138) Zbigniew BRODKA (139) Jan SZYMANSKI POL POL 3:52.240.5 - 17.86 - (17.8)
1.0 - 31.30 - (13.4)
1.5 - 44.56 - (13.2)
2.0 - 58.12 - (13.5)
2.5 - 1:11.97 - (13.8)
3.0 - 1:25.86 - (13.8)
3.5 - 1:39.62 - (13.7)
4.0 - 1:53.44 - (13.8)
4.5 - 2:07.39 - (13.9)
5.0 - 2:21.66 - (14.2)
5.5 - 2:36.29 - (14.6)
6.0 - 2:50.99 - (14.7)
6.5 - 3:05.70 - (14.7)
7.0 - 3:20.77 - (15.0)
7.5 - 3:36.56 - (15.7)
8.0 - 3:52.24 - (15.6)
10.52